AirNav   Everest Fuels
 
 1156 users online  

48G Gavagan Field Airport
Yale, Michigan, USA

GOING TO YALE?


FAA INFORMATION EFFECTIVE 21 MAY 2020

Location

FAA Identifier: 48G
Lat/Long: 43-06-12.4000N 082-53-24.8000W
43-06.206667N 082-53.413333W
43.1034444,-82.8902222
(estimated)
Elevation: 800 ft. / 244 m (estimated)
Variation: 06W (1985)
From city: 4 miles SW of YALE, MI
Time zone: UTC -4 (UTC -5 during Standard Time)
Zip code: 48097

Airport Operations

Airport use: Open to the public
Activation date: 10/1975
Control tower: no
ARTCC: CLEVELAND CENTER
FSS: LANSING FLIGHT SERVICE STATION
NOTAMs facility: LAN (NOTAM-D service available)
Attendance: IREG
CALL FOR RY COND.
Wind indicator: yes
Segmented circle: no

Airport Communications

CTAF: 122.9
WX AWOS-3P at D95 (17 nm W): 134.050 (810-664-5038)
WX AWOS-3 at PHN (20 nm SE): 118.375 (810-364-7787)

Nearby radio navigation aids

VOR radial/distance  VOR name  Freq  Var
FNTr084/38.5FLINT VORTAC116.9006W

Airport Services

Powerplant service: NONE
Bottled oxygen: NONE
Bulk oxygen: NONE

Runway Information

Runway 14/32

Dimensions: 1986 x 95 ft. / 605 x 29 m
Surface: turf, in fair condition
SOFT WHEN WET.
Runway edge markings: 14/32 THLD & RY 14 DSPLCD THLD MKD WITH TIRES.
RUNWAY 14  RUNWAY 32
Latitude: 43-06.335000N43-06.078333N
Longitude: 082-53.551667W082-53.275000W
Traffic pattern: leftleft
Displaced threshold: 690 ft.no
Runway end identifier lights: nono
Obstructions: 75 ft. tree, 138 ft. from runway, 133 ft. left of centerline, 1:1 slope to clear
+50 FT TREES 0 FT DSTC 100 FT L; APCH RATIO 0:1 AT DSPLCD THLD 20:1 BASED ON STRAIGHT OUT.
65 ft. trees, 63 ft. right of centerline

Airport Ownership and Management from official FAA records

Ownership: Privately-owned
Owner: ROBERT J. GAVAGAN
13989 FULTON ROAD
LYNN, MI 48097
Phone 586-776-6038
Manager: ROBERT J. GAVAGAN
13989 FULTON RD
LYNN, MI 48097
Phone 586-776-6038.

Airport Operational Statistics

Aircraft based on the field: 1
Single engine airplanes: 1
    
Aircraft operations: 100/year *
50% transient general aviation
50% local general aviation
* for 12-month period ending 31 December 2017

Additional Remarks

NO SNOW REMOVAL.
RY 14/32 HAS 2 FT DITCH ADJ TO RY BOTH SIDES.
FOR CD CTC SELFRIDGE APCH AT 586-239-5706, WHEN APCH CLSD CTC CLEVELAND ARTCC AT 440-774-0224, IF UNA CTC 440-774-0490.

Instrument Procedures

There are no published instrument procedures at 48G.

Some nearby airports with instrument procedures:

77G - Marlette Township Airport (15 nm NW)
D95 - Dupont-Lapeer Airport (17 nm W)
D98 - Romeo State Airport (19 nm S)
KPHN - St Clair County International Airport (20 nm SE)
57D - Ray Community Airport (22 nm S)
 
Loc | Ops | Rwys | IFR | FBO | Links
Com | Nav | Svcs | Stats | Notes
Area around 48G (Gavagan Field Airport)
 
Road maps at: MapQuest Bing Google
 
Aerial photo
WARNING: Photo may not be current or correct
Aerial photo of 48G (Gavagan Field Airport)
Do you have a better or more recent aerial photo of Gavagan Field Airport that you would like to share? If so, please send us your photo.

 
Sectional chart

 
Airport distance calculator
Flying to Gavagan Field Airport? Find the distance to fly.

From to 48G

Sunrise and sunset
Times for 25-May-2020
 Local
(UTC-4)
 Zulu
(UTC)
Morning civil twilight05:2509:25
Sunrise05:5909:59
Sunset20:5800:58
Evening civil twilight21:3201:32

Current date and time
Zulu (UTC)  25-May-2020 17:34:03
Local (UTC-4)  25-May-2020 13:34:03
 
METAR
KD95 
17nm W 
251716Z AUTO 00000KT 10SM CLR 28/19 A3006 RMK AO2 T02790194
KPHN 
20nm SE 
251715Z AUTO 16007KT 10SM CLR 28/19 A3006 RMK AO2
CYZR 
26nm E 
251700Z AUTO 20007KT 150V230 9SM FEW046 BKN180 OVC200 29/21 A3004 RMK SLP170 DENSITY ALT 2200FT
KMTC 
29nm S 
251656Z AUTO 14007KT 10SM FEW180 27/23 A3005 RMK AO2 SLP177 T02710227 FZRANO $
KCFS 
32nm NW 
251716Z AUTO 17006KT 10SM SCT120 28/20 A3004 RMK AO2 T02770196
TAF
CYZR 
26nm E 
251338Z 2514/2602 16005KT P6SM SCT250 FM251800 20012KT P6SM SCT050 TEMPO 2519/2524 P6SM VCTS FEW040CB BKN060 RMK FCST BASED ON AUTO OBS. NXT FCST BY 252000Z
KMTC 
29nm S 
250900Z 2509/2615 VRB06KT 9999 FEW020 SCT040 QNH2996INS BECMG 2515/2516 20009KT 9999 BKN020 BKN040 QNH2995INS TEMPO 2518/2524 20015G25KT 4800 -TSRA OVC020CB BECMG 2605/2606 VRB06KT 9999 SCT030 BKN040 510102 QNH3001INS TX24/2520Z TN16/2509Z LAST NO AMDS AFT 2509 NEXT 2511
NOTAMs
Click for the latest NOTAMs
NOTAMs are issued by the DoD/FAA and will open in a separate window not controlled by AirNav.

 

 
 

Would you like to see your business listed on this page?

 If your business provides an interesting product or service to pilots, flight crews, aircraft, or users of the Gavagan Field Airport, you should consider listing it here.  To start the listing process, click on the button below
 
Add a business
 

Other Pages about Gavagan Field Airport

Page from the Michigan Airport Directory (PDF)
 
Update a link
 
Copyright © AirNav, LLC. All rights reserved. Privacy Policy  Contact